www.pogodaiklimat.ru

Погода и климат >> Архив погоды >> Россия >> Архангельская область >> Зимнегорский Маяк


ПОГОДА в Зимнегорском Маяке

  • Прогноз погоды в Зимнегорском Маяке
  • Монитор погоды в Зимнегорском Маяке

АРХИВ ПОГОДЫ в Зимнегорском Маяке

Время (UTC), дата Ветер
(напр.,м/с)
 
Видим.   Явления Облачность Т
(С)
Тd
(С)
f
(%)
Тe
(С)
Тes
(С)
Комфортность P
(гПа)
Po
(гПа)
Тmin
(С)
Tmax
(С)
R
(мм)
R24
(мм)
S
(см)
06 10.07 С 5-10
{11}
20 км 10/10 300 м
[St]
+5.5 +4.3 92 +1 +1 1007.4 998.0
09 10.07 СВ 4-12
{13}
20 км 10/10 600 м
[Sc]
+6.7 +3.1 78 +3 +3 1007.8 998.4
12 10.07 СВ 4-12
{16}
20 км 8/8 600 м
[Cu Sc]
+7.9 +3.6 74 +5 +6 1007.6 998.2
15 10.07 СВ 5-12
{19}
20 км 8/8 600 м
[Cu Sc]
+6.7 +3.4 79 +3 +3 1007.5 998.1 +8.2
18 10.07 С 4-12
{14}
20 км 10/10 600 м
[Sc]
+5.1 +3.4 89 +1 +1 1007.5 998.1
21 10.07 С 5-12
{12}
20 км 10/10 600 м
[Sc]
+4.9 +3.0 87 0 0 1006.7 997.3
00 11.07 С 3
{11}
4000 м слаб. морось 10/10 300 м
[St]
+4.1 +3.4 95 0 0 1005.5 996.0
03 11.07 С 2
{10}
4000 м слаб. дождь {морось} 10/0 300 м
[As op]
+4.0 +3.5 97 +1 +1 1004.6 995.1 +3.8 0.9
06 11.07 С 1 20 км в посл. час дождь {морось} 10/10 300 м
[St]
+4.7 +4.2 97 +3 +3 1003.6 994.2
09 11.07 С 2 4000 м слаб. дождь 10/0 300 м
[As op]
+5.7 +5.0 95 +3 +5 1003.6 994.2
12 11.07 С 3 4000 м слаб. дождь 10/10 300 м
[Frnb Ns]
+4.0 +3.5 97 0 0 1003.5 994.1
15 11.07 С 4
{11}
4000 м слаб. дождь 10/10 300 м
[Frnb Ns]
+3.0 +2.5 97 -2 -2 1002.7 993.2 +6.4 2
18 11.07 СЗ 4 4000 м слаб. дождь 10/10 300 м
[Frnb Ns]
+3.5 +3.3 99 -1 -1 1000.8 991.4
21 11.07 СЗ 3 4000 м слаб. дождь 10/10 300 м
[Frnb Ns]
+3.6 +3.6 100 -1 -1 999.5 990.1
00 12.07 Ю 2 2000 м слаб. морось {дождь} 10/10 300 м
[St]
+3.7 +3.7 100 +1 +1 999.4 990.0
03 12.07 ЮВ 4 10 км {морось} 9/6 300 м
[St Ac trans Ci fib]
+4.4 +4.2 99 -0 0 999.7 990.3 +3.0 2
06 12.07 ЮВ 5
{11}
20 км {морось} 9/8 600 м
[Sc Ci fib]
+5.8 +4.9 94 +1 +2 1001.5 992.1
09 12.07 Ю 4
{10}
20 км 9/8 300 м
[Cb cap Ac trans Ci fib]
+9.8 +5.4 74 +7 +8 1002.9 993.6
12 12.07 ЮВ 6
{11}
20 км 8/4 600 м
[Sc Ci fib]
+10.1 +5.8 75 +7 +9 1004.6 995.3
15 12.07 СЗ 2
{11}
20 км {ливн. осадки} 8/5 300 м
[Cb cap Ci fib]
+9.3 +5.8 79 +8 +9 1006.2 996.8 +12.0 0.1
18 12.07 В 3 20 км {снег} 6/3 600 м
[Sc Ci fib]
+10.1 +6.2 77 +8 +8 1007.2 997.9
21 12.07 В 4 20 км 6/5 600 м
[Sc Ci fib]
+7.3 +5.0 85 +4 +4 1007.8 998.4
00 13.07 В 5 20 км 9/6 600 м
[Sc Ac trans Ci fib]
+7.4 +4.9 84 +3 +3 1007.7 998.3
03 13.07 В 3 20 км 9/9 600 м
[Sc]
+9.9 +6.2 78 +8 +8 1007.7 998.4 +6.7
06 13.07 В 4 20 км 10/0
[Ac und]
+13.4 +6.1 61 +12 +13 1007.6 998.4
09 13.07 СВ 3 20 км 10/10 600 м
[Sc]
+12.7 +9.4 80 +11 +11 1007.5 998.3
12 13.07 СВ 4 10 км {ливн. осадки} 10/10 300 м
[Cb calv]
+11.5 +9.9 90 +9 +9 1008.1 998.9
15 13.07 СВ 4 20 км в посл. час ливневой дождь 10/10 300 м
[Cb calv]
+10.6 +9.4 92 +8 +8 1008.2 998.9 -14.6 1
18 13.07 В 4
{10}
20 км {ливн. осадки} 9/8 300 м
[Cb cap Ci fib]
+10.4 +9.0 91 +8 +8 1008.4 999.1
21 13.07 В 5 20 км 10/10 600 м
[Sc]
+9.8 +8.8 93 +6 +6 1008.5 999.2
00 14.07 В 5 4000 м слаб. ливневой дождь 10/10 300 м
[Cb cap]
+9.0 +8.6 97 +5 +5 1008.8 999.5
03 14.07 В 6 20 км {ливн. осадки} 10/10 300 м
[Cb cap]
+8.4 +7.8 96 +4 +4 1008.8 999.4 +8.5 0.7
06 14.07 СВ 3 20 км {ливн. осадки} 10/10 600 м
[Sc]
+9.3 +8.5 95 +7 +7 1009.1 999.8 +8.4
09 14.07 СЗ 1 20 км 8/8 300 м
[Cu Sc]
+11.7 +10.5 92 +11 +14 1009.7 1000.5
12 14.07 СЗ 3 20 км 6/6 300 м
[Cu Sc]
+13.0 +9.3 78 +12 +15 1010.1 1000.9
15 14.07 С 2 20 км 8/8 300 м
[Cu Sc]
+13.9 +9.6 75 +13 +14 1010.2 1001.0 +14.2
18 14.07 В 2 20 км 8/4 600 м
[Sc Ci fib]
+12.9 +9.4 79 +12 +12 1010.1 1000.9
21 14.07 В 5 20 км 1/0
[Cc]
+9.4 +8.8 96 +6 +6 1010.0 1000.7
00 15.07 В 6 20 км 1/0
[Cc]
+8.7 +6.5 86 +5 +5 1010.0 1000.6
03 15.07 В 5 н/о н/о +9.7 +9.7 100 +6 +6 1010.1 1000.7 +8.7
06 15.07 В 4 20 км ясно +11.9 +10.4 91 +10 +15 1009.8 1000.5
09 15.07 С 1
{10}
20 км 10/8 600 м
[Sc Ac trans Ci fib]
+10.9 +10.1 95 +10 +12 1010.6 1001.3
12 15.07 С 2 20 км 9/5 300 м
[Cu Sc Ci fib]
+12.5 +10.6 88 +12 +15 1010.6 1001.4
15 15.07 С 2 20 км 8/3 300 м
[Cu Sc Ci fib]
+14.7 +9.9 73 +14 +16 1010.4 1001.2 +14.8
18 15.07 В 2 20 км 9/4 600 м
[Sc Ac trans Ci fib]
+13.2 +9.9 80 +12 +13 1010.3 1001.1
21 15.07 СВ 2 20 км 8/4 600 м
[Sc Ac trans Ci fib]
+10.6 +9.6 94 +9 +9 1010.2 1000.9
00 16.07 В 3 20 км 8/0
[Ac trans Ci fib]
+8.3 +7.5 95 +5 +5 1010.8 1001.4
03 16.07 СВ 2 20 км 10/0
[Cs]
+9.6 +8.4 92 +8 +9 1010.6 1001.3 +7.8
06 16.07 С 2 20 км 10/0
[Cs]
+8.3 +7.5 95 +6 +12 1010.8 1001.4
09 16.07 С 2 20 км 8/8 600 м
[Sc]
+9.0 +8.6 97 +7 +9 1011.8 1002.4
12 16.07 З 4 500 м туман ?/? +9.3 +9.1 99 +6 +6 1012.2 1002.9
15 16.07 З 3 500 м туман ?/? +9.1 +8.7 97 +6 +6 1012.5 1003.2 +11.8
18 16.07 З 5 500 м туман ?/? +8.5 +8.5 100 +5 +5 1011.9 1002.5
21 16.07 З 5 20 км в посл. час туман 10/10 600 м
[Sc]
+7.5 +7.1 97 +3 +3 1012.2 1002.7
00 17.07 З 6 20 км {туман} 10/10 600 м
[Sc]
+8.3 +7.7 96 +4 +4 1012.4 1003.0
03 17.07 ЮЗ 5 20 км 6/4 600 м
[Sc Ci fib]
+8.8 +8.2 96 +5 +6 1013.1 1003.7 +7.3

 

Местоположение метеостанции Зимнегорский Маяк (Архангельская область, Россия): широта 65.46 долгота 39.73 высота над уровнем моря 77 м.

В архиве по умолчанию представлена погода в Зимнегорском Маяке за последнюю неделю. Архивные данные за месяц целиком и за предыдущие месяцы, начиная с января 2011 года, Вы можете получить, выбрав интересующий диапазон дат из раскрывающегося списка и нажав кнопку "Ввод!".


*Определитесь, кто Вы:
робот инопланетянин человек

Внимание! Время в таблицах - всемирное. Для получения местного времени необходимо прибавить поправку, которая равна 3 ч.

Смотрите также архив погоды в соседних городах и на ближайших метеорологических станциях:

Погода на Мудьюг Острове (Архангельская область, Россия) (73 км)
Погода в Пялице (Мурманская область, Россия) (81 км)
Погода в Унском Маяке (Архангельская область, Россия) (94 км)
Погода в Кепино (Архангельская область, Россия) (98 км)
Погода в Северодвинске (Архангельская область, Россия) (98 км)
Погода на Чаваньга реке (Мурманская область, Россия) (115 км)
Погода в Архангельске (Архангельская область, Россия) (117 км)
Погода на Сосновец Острове (Мурманская область, Россия) (121 км)
Погода в Жижгине (Архангельская область, Россия) (139 км)
Погода в Холмогорах (Архангельская область, Россия) (166 км)

Пояснения к столбцам:

Ветер - указаны скорость ветра в м/с - средняя за 10 мин, порывы в срок и между сроками (в фигурных скобках) и направление, откуда дует ветер: С - северный, СВ - северо-восточный, В - восточный, ЮВ - юго-восточный, Ю - южный, ЮЗ - юго-западный, З - западный, СЗ - северо-западный.
Видимость - горизонтальная дальность видимости в метрах или километрах. При видимости от 1 до 10 км при отсутствии осадков обычно наблюдается дымка, при ухудшении видимости до 1 км и менее - туман. В сухую погоду видимость может ухудшаться дымом, пылью или мглою.
Явления - указаны атмосферные явления, наблюдавшиеся в срок или в последний час перед сроком; фигурными скобками обозначены явления, наблюдавшиеся между сроками (за 1-3 часа до срока); квадратными скобками обозначены град или гололедные отложения с указанием их диаметра в мм.
Облачность - указаны через наклонную черту общая и нижняя облачность в баллах и высота нижней границы облаков в метрах; квадратными скобками обозначены формы облаков: Ci - перистые, Cs - перисто-слоистые, Cc - перисто-кучевые, Ac - высококучевые, As - высокослоистые, Sc - слоисто-кучевые, Ns - слоисто-дождевые, Cu - кучевые, Cb - кучево-дождевые. Подробнее классификацию облаков см. в Атласе облаков (PDF).
T - Температура воздуха - температура, измеренная на высоте 2 м над землей.
Td - Температура точки росы - температура, при понижении до которой содержащийся в воздухе водяной пар достигнет насыщения.
f - Относительная влажность воздуха - влажноcть воздуха, измеренная на высоте 2 м над землей.
Te - Эффективная температура - температура, которую ощущает одетый по сезону человек в тени. Характеристика душности погоды. При расчете учитывается влияние влажности воздуха и скорости ветра на теплоощущения человека.
Tes - Эффективная температура на солнце - температура, которую ощущает человек, с поправкой на солнечный нагрев. Характеристика знойности погоды. Зависит от высоты солнца над горизонтом, облачности и скорости ветра. Ночью, в пасмурную погоду, а также при ветре 12 м/с и более поправка равна нулю.
P - Атмосферное давление - приведенное к уровню моря атмосферное давление.
Po - Атмосферное давление - измеренное на уровне метеостанции атмосферное давление.
Tmin - Минимальная температура - минимум температуры воздуха на высоте 2 м над землей.
Tmax - Максимальная температура - максимум температуры воздуха на высоте 2 м над землей.
R - Количество осадков - Количество выпавших осадков за период времени, мм. При наведении курсора мыши на число - период времени, за который выпало указанное количество осадков.
R24 - Количество осадков - Количество выпавших осадков за 24 часа, мм.
S - Снежный покров - Высота снежного покрова, см. При наведении курсора мыши на число - состояние снежного покрова и степень покрытия местности в баллах.